Data supplied by UK-AIR on 17/6/2020
All Data GMT hour ending 
Status: R =Ratified P=Provisional,P*=As supplied
,,Sheffield Barnsley Road,,,,,,,,,,,,,,,,,,,,,,,
Date,time,"Nitric oxide",status,unit,"Nitrogen dioxide",status,unit,"Nitrogen oxides as nitrogen dioxide",status,unit,"PM<sub>2.5</sub> particulate matter (Hourly measured)",status,unit
 
01-01-2019,01:00,9.15235,R,ugm-3,16.05494,R,ugm-3,30.08835,R,ugm-3,11.000,R,ugm-3 (BAM)
01-01-2019,02:00,8.60045,R,ugm-3,11.81680,R,ugm-3,25.00397,R,ugm-3,18.000,R,ugm-3 (BAM)
01-01-2019,03:00,7.03673,R,ugm-3,12.56031,R,ugm-3,23.34981,R,ugm-3,14.000,R,ugm-3 (BAM)
01-01-2019,04:00,3.00096,R,ugm-3,10.44277,R,ugm-3,15.04417,R,ugm-3,11.000,R,ugm-3 (BAM)
01-01-2019,05:00,2.93197,R,ugm-3,11.48881,R,ugm-3,15.98443,R,ugm-3,8.000,R,ugm-3 (BAM)
01-01-2019,06:00,4.31172,R,ugm-3,9.16427,R,ugm-3,15.77549,R,ugm-3,6.000,R,ugm-3 (BAM)
01-01-2019,07:00,6.45034,R,ugm-3,12.25799,R,ugm-3,22.14836,R,ugm-3,6.000,R,ugm-3 (BAM)
01-01-2019,08:00,8.89939,R,ugm-3,13.30860,R,ugm-3,26.95414,R,ugm-3,6.000,R,ugm-3 (BAM)
01-01-2019,09:00,4.79463,R,ugm-3,7.69250,R,ugm-3,15.04417,R,ugm-3,9.000,R,ugm-3 (BAM)
01-01-2019,10:00,8.31300,R,ugm-3,13.21522,R,ugm-3,25.96164,R,ugm-3,18.000,R,ugm-3 (BAM)
01-01-2019,11:00,7.58863,R,ugm-3,7.63961,R,ugm-3,19.27535,R,ugm-3,4.000,R,ugm-3 (BAM)
01-01-2019,12:00,5.34653,R,ugm-3,11.07744,R,ugm-3,19.27535,R,ugm-3,5.000,R,ugm-3 (BAM)
01-01-2019,13:00,17.41935,R,ugm-3,30.64660,R,ugm-3,57.35591,R,ugm-3,11.000,R,ugm-3 (BAM)
01-01-2019,14:00,23.11083,R,ugm-3,26.77782,R,ugm-3,62.21392,R,ugm-3,14.000,R,ugm-3 (BAM)
01-01-2019,15:00,24.38710,R,ugm-3,42.79032,R,ugm-3,80.18335,R,ugm-3,14.000,R,ugm-3 (BAM)
01-01-2019,16:00,104.03321,R,ugm-3,78.21390,R,ugm-3,237.72926,R,ugm-3,17.000,R,ugm-3 (BAM)
01-01-2019,17:00,86.61386,R,ugm-3,70.13355,R,ugm-3,202.93962,R,ugm-3,17.000,R,ugm-3 (BAM)
01-01-2019,18:00,69.09102,R,ugm-3,64.19687,R,ugm-3,170.13496,R,ugm-3,15.000,R,ugm-3 (BAM)
01-01-2019,19:00,59.08783,R,ugm-3,57.38652,R,ugm-3,147.98660,R,ugm-3,18.000,R,ugm-3 (BAM)
01-01-2019,20:00,19.86841,R,ugm-3,33.15984,R,ugm-3,63.62431,R,ugm-3,16.000,R,ugm-3 (BAM)
01-01-2019,21:00,32.35516,R,ugm-3,51.36301,R,ugm-3,100.97356,R,ugm-3,17.000,R,ugm-3 (BAM)
01-01-2019,22:00,27.04312,R,ugm-3,42.32215,R,ugm-3,83.78768,R,ugm-3,12.000,R,ugm-3 (BAM)
01-01-2019,23:00,17.59182,R,ugm-3,32.47162,R,ugm-3,59.44538,R,ugm-3,11.000,R,ugm-3 (BAM)
01-01-2019,24:00,10.14117,R,ugm-3,25.03835,R,ugm-3,40.58792,R,ugm-3,10.000,R,ugm-3 (BAM)
02-01-2019,01:00,14.36917,R,ugm-3,21.06876,R,ugm-3,43.10118,R,ugm-3,12.000,R,ugm-3 (BAM)
02-01-2019,02:00,4.43550,R,ugm-3,16.95005,R,ugm-3,23.75105,R,ugm-3,8.000,R,ugm-3 (BAM)
02-01-2019,03:00,4.05432,R,ugm-3,10.60130,R,ugm-3,16.81784,R,ugm-3,10.000,R,ugm-3 (BAM)
02-01-2019,04:00,2.00984,R,ugm-3,8.75889,R,ugm-3,11.84060,R,ugm-3,9.000,R,ugm-3 (BAM)
02-01-2019,05:00,3.67315,R,ugm-3,13.01948,R,ugm-3,18.65156,R,ugm-3,8.000,R,ugm-3 (BAM)
02-01-2019,06:00,20.09836,R,ugm-3,32.94405,R,ugm-3,63.76110,R,ugm-3,11.000,R,ugm-3 (BAM)
02-01-2019,07:00,36.28100,R,ugm-3,48.73484,R,ugm-3,104.36492,R,ugm-3,13.000,R,ugm-3 (BAM)
02-01-2019,08:00,42.03328,R,ugm-3,52.17452,R,ugm-3,116.62466,R,ugm-3,11.000,R,ugm-3 (BAM)
02-01-2019,09:00,59.22084,R,ugm-3,59.66588,R,ugm-3,150.46991,R,ugm-3,13.000,R,ugm-3 (BAM)
02-01-2019,10:00,56.03283,R,ugm-3,57.79553,R,ugm-3,143.71134,R,ugm-3,13.000,R,ugm-3 (BAM)
02-01-2019,11:00,44.14708,R,ugm-3,65.90844,R,ugm-3,133.59968,R,ugm-3,11.000,R,ugm-3 (BAM)
02-01-2019,12:00,39.60762,R,ugm-3,59.40409,R,ugm-3,120.13492,R,ugm-3,17.000,R,ugm-3 (BAM)
02-01-2019,13:00,58.83967,R,ugm-3,66.11825,R,ugm-3,156.33781,R,ugm-3,12.000,R,ugm-3 (BAM)
02-01-2019,14:00,54.92395,R,ugm-3,65.83522,R,ugm-3,150.05077,R,ugm-3,10.000,R,ugm-3 (BAM)
02-01-2019,15:00,74.84905,R,ugm-3,80.81251,R,ugm-3,195.57945,R,ugm-3,,,
02-01-2019,16:00,,,,,,,,,,,,
02-01-2019,17:00,83.76625,R,ugm-3,79.03265,R,ugm-3,207.47244,R,ugm-3,,,
02-01-2019,18:00,55.44374,R,ugm-3,72.42550,R,ugm-3,157.43805,R,ugm-3,17.000,R,ugm-3 (BAM)
02-01-2019,19:00,84.23983,R,ugm-3,91.19494,R,ugm-3,220.36087,R,ugm-3,24.000,R,ugm-3 (BAM)
02-01-2019,20:00,59.63667,R,ugm-3,68.40646,R,ugm-3,159.84808,R,ugm-3,15.000,R,ugm-3 (BAM)
02-01-2019,21:00,82.16069,R,ugm-3,94.80205,R,ugm-3,220.78001,R,ugm-3,22.000,R,ugm-3 (BAM)
02-01-2019,22:00,43.59264,R,ugm-3,69.16859,R,ugm-3,136.00971,R,ugm-3,20.000,R,ugm-3 (BAM)
02-01-2019,23:00,53.12203,R,ugm-3,71.16534,R,ugm-3,152.61798,R,ugm-3,24.000,R,ugm-3 (BAM)
02-01-2019,24:00,38.18687,R,ugm-3,54.77157,R,ugm-3,113.32396,R,ugm-3,19.000,R,ugm-3 (BAM)
03-01-2019,01:00,16.16638,R,ugm-3,43.13287,R,ugm-3,67.92098,R,ugm-3,19.000,R,ugm-3 (BAM)
03-01-2019,02:00,12.75808,R,ugm-3,31.03065,R,ugm-3,50.59278,R,ugm-3,17.000,R,ugm-3 (BAM)
03-01-2019,03:00,5.80332,R,ugm-3,17.98129,R,ugm-3,26.87959,R,ugm-3,18.000,R,ugm-3 (BAM)
03-01-2019,04:00,4.45612,R,ugm-3,15.81931,R,ugm-3,22.65192,R,ugm-3,21.000,R,ugm-3 (BAM)
03-01-2019,05:00,5.76877,R,ugm-3,19.07813,R,ugm-3,27.92345,R,ugm-3,21.000,R,ugm-3 (BAM)
03-01-2019,06:00,18.27354,R,ugm-3,31.42922,R,ugm-3,59.44825,R,ugm-3,25.000,R,ugm-3 (BAM)
03-01-2019,07:00,38.55060,R,ugm-3,52.32275,R,ugm-3,111.43285,R,ugm-3,23.000,R,ugm-3 (BAM)
03-01-2019,08:00,71.29789,R,ugm-3,63.80352,R,ugm-3,173.12542,R,ugm-3,28.000,R,ugm-3 (BAM)
03-01-2019,09:00,96.20379,R,ugm-3,71.75394,R,ugm-3,219.26436,R,ugm-3,28.000,R,ugm-3 (BAM)
03-01-2019,10:00,81.21189,R,ugm-3,67.18310,R,ugm-3,191.70626,R,ugm-3,27.000,R,ugm-3 (BAM)
03-01-2019,11:00,67.77445,R,ugm-3,52.19101,R,ugm-3,156.11038,R,ugm-3,25.000,R,ugm-3 (BAM)
03-01-2019,12:00,49.29365,R,ugm-3,43.88809,R,ugm-3,119.47063,R,ugm-3,,,
03-01-2019,13:00,39.20693,R,ugm-3,43.06984,R,ugm-3,103.18630,R,ugm-3,23.000,R,ugm-3 (BAM)
03-01-2019,14:00,48.49915,R,ugm-3,51.83926,R,ugm-3,126.20358,R,ugm-3,19.000,R,ugm-3 (BAM)
03-01-2019,15:00,46.53016,R,ugm-3,51.98769,R,ugm-3,123.33294,R,ugm-3,14.000,R,ugm-3 (BAM)
03-01-2019,16:00,70.29613,R,ugm-3,68.26236,R,ugm-3,176.04825,R,ugm-3,25.000,R,ugm-3 (BAM)
03-01-2019,17:00,65.80546,R,ugm-3,75.77427,R,ugm-3,176.67457,R,ugm-3,27.000,R,ugm-3 (BAM)
03-01-2019,18:00,118.24257,R,ugm-3,96.47038,R,ugm-3,277.77313,R,ugm-3,32.000,R,ugm-3 (BAM)
03-01-2019,19:00,107.49953,R,ugm-3,88.93387,R,ugm-3,253.76418,R,ugm-3,24.000,R,ugm-3 (BAM)
03-01-2019,20:00,98.79455,R,ugm-3,81.03861,R,ugm-3,232.52148,R,ugm-3,21.000,R,ugm-3 (BAM)
03-01-2019,21:00,113.92463,R,ugm-3,84.98004,R,ugm-3,259.66203,R,ugm-3,25.000,R,ugm-3 (BAM)
03-01-2019,22:00,86.84249,R,ugm-3,80.36647,R,ugm-3,213.52309,R,ugm-3,23.000,R,ugm-3 (BAM)
03-01-2019,23:00,82.45546,R,ugm-3,75.45403,R,ugm-3,201.88397,R,ugm-3,24.000,R,ugm-3 (BAM)
03-01-2019,24:00,45.66657,R,ugm-3,62.55006,R,ugm-3,132.57117,R,ugm-3,23.000,R,ugm-3 (BAM)
04-01-2019,01:00,28.97112,R,ugm-3,41.40419,R,ugm-3,85.82595,R,ugm-3,18.000,R,ugm-3 (BAM)
04-01-2019,02:00,20.93634,R,ugm-3,37.50166,R,ugm-3,69.60360,R,ugm-3,13.000,R,ugm-3 (BAM)
04-01-2019,03:00,14.94469,R,ugm-3,39.21882,R,ugm-3,62.13369,R,ugm-3,17.000,R,ugm-3 (BAM)
04-01-2019,04:00,7.67895,R,ugm-3,36.00892,R,ugm-3,47.78315,R,ugm-3,17.000,R,ugm-3 (BAM)
04-01-2019,05:00,15.46121,R,ugm-3,46.38202,R,ugm-3,70.08888,R,ugm-3,18.000,R,ugm-3 (BAM)
04-01-2019,06:00,44.28311,R,ugm-3,50.59614,R,ugm-3,118.49596,R,ugm-3,18.000,R,ugm-3 (BAM)
04-01-2019,07:00,52.68519,R,ugm-3,64.43842,R,ugm-3,145.22125,R,ugm-3,22.000,R,ugm-3 (BAM)
04-01-2019,08:00,75.85979,R,ugm-3,73.61999,R,ugm-3,189.93671,R,ugm-3,21.000,R,ugm-3 (BAM)
04-01-2019,09:00,171.51957,R,ugm-3,88.90725,R,ugm-3,351.90025,R,ugm-3,35.000,R,ugm-3 (BAM)
04-01-2019,10:00,134.57106,R,ugm-3,75.67993,R,ugm-3,282.01935,R,ugm-3,30.000,R,ugm-3 (BAM)
04-01-2019,11:00,88.66952,R,ugm-3,80.49598,R,ugm-3,216.45401,R,ugm-3,20.000,R,ugm-3 (BAM)
04-01-2019,12:00,81.05944,R,ugm-3,68.97496,R,ugm-3,193.26437,R,ugm-3,16.000,R,ugm-3 (BAM)
04-01-2019,13:00,85.08831,R,ugm-3,74.70424,R,ugm-3,205.17116,R,ugm-3,20.000,R,ugm-3 (BAM)
04-01-2019,14:00,84.88170,R,ugm-3,64.20614,R,ugm-3,194.35626,R,ugm-3,27.000,R,ugm-3 (BAM)
04-01-2019,15:00,79.95753,R,ugm-3,68.53276,R,ugm-3,191.13258,R,ugm-3,31.000,R,ugm-3 (BAM)
04-01-2019,16:00,70.62571,R,ugm-3,62.87538,R,ugm-3,171.16661,R,ugm-3,30.000,R,ugm-3 (BAM)
04-01-2019,17:00,65.46049,R,ugm-3,66.84366,R,ugm-3,167.21501,R,ugm-3,40.000,R,ugm-3 (BAM)
04-01-2019,18:00,59.46884,R,ugm-3,65.26782,R,ugm-3,156.45211,R,ugm-3,44.000,R,ugm-3 (BAM)
04-01-2019,19:00,55.33667,R,ugm-3,59.28098,R,ugm-3,144.12936,R,ugm-3,23.000,R,ugm-3 (BAM)
04-01-2019,20:00,61.70710,R,ugm-3,56.01246,R,ugm-3,150.62870,R,ugm-3,29.000,R,ugm-3 (BAM)
04-01-2019,21:00,54.54467,R,ugm-3,53.21611,R,ugm-3,136.85010,R,ugm-3,22.000,R,ugm-3 (BAM)
04-01-2019,22:00,51.10119,R,ugm-3,57.45614,R,ugm-3,135.81020,R,ugm-3,21.000,R,ugm-3 (BAM)
04-01-2019,23:00,39.59998,R,ugm-3,53.46128,R,ugm-3,114.18040,R,ugm-3,19.000,R,ugm-3 (BAM)
04-01-2019,24:00,21.24625,R,ugm-3,37.71973,R,ugm-3,70.29686,R,ugm-3,21.000,R,ugm-3 (BAM)
05-01-2019,01:00,12.72350,R,ugm-3,30.00795,R,ugm-3,49.51704,R,ugm-3,21.000,R,ugm-3 (BAM)
05-01-2019,02:00,5.08025,R,ugm-3,19.00623,R,ugm-3,26.79583,R,ugm-3,16.000,R,ugm-3 (BAM)
05-01-2019,03:00,3.84451,R,ugm-3,14.77180,R,ugm-3,20.66663,R,ugm-3,17.000,R,ugm-3 (BAM)
05-01-2019,04:00,2.67743,R,ugm-3,12.88378,R,ugm-3,16.98911,R,ugm-3,14.000,R,ugm-3 (BAM)
05-01-2019,05:00,4.90862,R,ugm-3,11.22374,R,ugm-3,18.75018,R,ugm-3,13.000,R,ugm-3 (BAM)
05-01-2019,06:00,6.45328,R,ugm-3,13.93129,R,ugm-3,23.82619,R,ugm-3,12.000,R,ugm-3 (BAM)
05-01-2019,07:00,12.52898,R,ugm-3,19.53262,R,ugm-3,38.74346,R,ugm-3,15.000,R,ugm-3 (BAM)
05-01-2019,08:00,14.51989,R,ugm-3,21.86673,R,ugm-3,44.13025,R,ugm-3,12.000,R,ugm-3 (BAM)
05-01-2019,09:00,23.47897,R,ugm-3,26.46547,R,ugm-3,62.46605,R,ugm-3,11.000,R,ugm-3 (BAM)
05-01-2019,10:00,37.44965,R,ugm-3,44.15009,R,ugm-3,101.57208,R,ugm-3,16.000,R,ugm-3 (BAM)
05-01-2019,11:00,38.37645,R,ugm-3,39.93203,R,ugm-3,98.77509,R,ugm-3,13.000,R,ugm-3 (BAM)
05-01-2019,12:00,52.55308,R,ugm-3,52.53562,R,ugm-3,133.11588,R,ugm-3,15.000,R,ugm-3 (BAM)
05-01-2019,13:00,29.28006,R,ugm-3,39.11775,R,ugm-3,84.01321,R,ugm-3,12.000,R,ugm-3 (BAM)
05-01-2019,14:00,44.21186,R,ugm-3,52.63527,R,ugm-3,120.42585,R,ugm-3,12.000,R,ugm-3 (BAM)
05-01-2019,15:00,29.89793,R,ugm-3,48.78855,R,ugm-3,94.63141,R,ugm-3,11.000,R,ugm-3 (BAM)
05-01-2019,16:00,32.95294,R,ugm-3,54.20450,R,ugm-3,104.73164,R,ugm-3,17.000,R,ugm-3 (BAM)
05-01-2019,17:00,30.72175,R,ugm-3,51.72086,R,ugm-3,98.82689,R,ugm-3,20.000,R,ugm-3 (BAM)
05-01-2019,18:00,39.88679,R,ugm-3,53.98376,R,ugm-3,115.14265,R,ugm-3,13.000,R,ugm-3 (BAM)
05-01-2019,19:00,34.22300,R,ugm-3,37.54702,R,ugm-3,90.02156,R,ugm-3,10.000,R,ugm-3 (BAM)
05-01-2019,20:00,26.05342,R,ugm-3,36.14040,R,ugm-3,76.08842,R,ugm-3,12.000,R,ugm-3 (BAM)
05-01-2019,21:00,25.50420,R,ugm-3,35.42863,R,ugm-3,74.53453,R,ugm-3,9.000,R,ugm-3 (BAM)
05-01-2019,22:00,20.08070,R,ugm-3,42.13888,R,ugm-3,72.92886,R,ugm-3,13.000,R,ugm-3 (BAM)
05-01-2019,23:00,17.91816,R,ugm-3,26.54916,R,ugm-3,54.02329,R,ugm-3,10.000,R,ugm-3 (BAM)
05-01-2019,24:00,16.37349,R,ugm-3,25.70627,R,ugm-3,50.81194,R,ugm-3,10.000,R,ugm-3 (BAM)
06-01-2019,01:00,15.83116,R,ugm-3,27.66729,R,ugm-3,51.94139,R,ugm-3,14.000,R,ugm-3 (BAM)
06-01-2019,02:00,7.98401,R,ugm-3,14.58867,R,ugm-3,26.83065,R,ugm-3,13.000,R,ugm-3 (BAM)
06-01-2019,03:00,7.42513,R,ugm-3,16.06478,R,ugm-3,27.44982,R,ugm-3,11.000,R,ugm-3 (BAM)
06-01-2019,04:00,3.42172,R,ugm-3,8.47835,R,ugm-3,13.72491,R,ugm-3,8.000,R,ugm-3 (BAM)
06-01-2019,05:00,3.83233,R,ugm-3,9.80946,R,ugm-3,15.68561,R,ugm-3,10.000,R,ugm-3 (BAM)
06-01-2019,06:00,5.57740,R,ugm-3,15.02812,R,ugm-3,23.58002,R,ugm-3,10.000,R,ugm-3 (BAM)
06-01-2019,07:00,13.00253,R,ugm-3,27.22309,R,ugm-3,47.16003,R,ugm-3,8.000,R,ugm-3 (BAM)
06-01-2019,08:00,10.09407,R,ugm-3,24.09785,R,ugm-3,39.57521,R,ugm-3,10.000,R,ugm-3 (BAM)
06-01-2019,09:00,20.87249,R,ugm-3,31.46077,R,ugm-3,63.46481,R,ugm-3,12.000,R,ugm-3 (BAM)
06-01-2019,10:00,23.64408,R,ugm-3,32.68038,R,ugm-3,68.93414,R,ugm-3,14.000,R,ugm-3 (BAM)
06-01-2019,11:00,24.43108,R,ugm-3,29.30658,R,ugm-3,66.76705,R,ugm-3,13.000,R,ugm-3 (BAM)
06-01-2019,12:00,24.67060,R,ugm-3,29.45530,R,ugm-3,67.28302,R,ugm-3,12.000,R,ugm-3 (BAM)
06-01-2019,13:00,27.85280,R,ugm-3,23.02807,R,ugm-3,65.73510,R,ugm-3,9.000,R,ugm-3 (BAM)
06-01-2019,14:00,31.41139,R,ugm-3,29.95502,R,ugm-3,78.11847,R,ugm-3,8.000,R,ugm-3 (BAM)
06-01-2019,15:00,32.33525,R,ugm-3,32.56305,R,ugm-3,82.14307,R,ugm-3,10.000,R,ugm-3 (BAM)
06-01-2019,16:00,66.03919,R,ugm-3,51.05687,R,ugm-3,152.31555,R,ugm-3,12.000,R,ugm-3 (BAM)
06-01-2019,17:00,106.41548,R,ugm-3,84.60263,R,ugm-3,247.77075,R,ugm-3,20.000,R,ugm-3 (BAM)
06-01-2019,18:00,161.60781,R,ugm-3,98.37182,R,ugm-3,346.16701,R,ugm-3,23.000,R,ugm-3 (BAM)
06-01-2019,19:00,175.46578,R,ugm-3,93.68600,R,ugm-3,362.72977,R,ugm-3,27.000,R,ugm-3 (BAM)
06-01-2019,20:00,137.72421,R,ugm-3,87.26523,R,ugm-3,298.43940,R,ugm-3,34.000,R,ugm-3 (BAM)
06-01-2019,21:00,138.81916,R,ugm-3,77.94991,R,ugm-3,290.80299,R,ugm-3,35.000,R,ugm-3 (BAM)
06-01-2019,22:00,38.46013,R,ugm-3,40.71482,R,ugm-3,99.68619,R,ugm-3,14.000,R,ugm-3 (BAM)
06-01-2019,23:00,14.09749,R,ugm-3,31.01352,R,ugm-3,52.62936,R,ugm-3,16.000,R,ugm-3 (BAM)
06-01-2019,24:00,12.21554,R,ugm-3,26.88188,R,ugm-3,45.61211,R,ugm-3,18.000,R,ugm-3 (BAM)
07-01-2019,01:00,9.59583,R,ugm-3,25.24056,R,ugm-3,39.95396,R,ugm-3,13.000,R,ugm-3 (BAM)
07-01-2019,02:00,12.46094,R,ugm-3,17.62647,R,ugm-3,36.73297,R,ugm-3,15.000,R,ugm-3 (BAM)
07-01-2019,03:00,1.77364,R,ugm-3,9.35917,R,ugm-3,12.07871,R,ugm-3,12.000,R,ugm-3 (BAM)
07-01-2019,04:00,2.01240,R,ugm-3,9.91825,R,ugm-3,13.00389,R,ugm-3,10.000,R,ugm-3 (BAM)
07-01-2019,05:00,2.62635,R,ugm-3,11.59821,R,ugm-3,15.62522,R,ugm-3,11.000,R,ugm-3 (BAM)
07-01-2019,06:00,15.45111,R,ugm-3,27.86158,R,ugm-3,51.55295,R,ugm-3,17.000,R,ugm-3 (BAM)
07-01-2019,07:00,25.37666,R,ugm-3,39.42137,R,ugm-3,78.33170,R,ugm-3,15.000,R,ugm-3 (BAM)
07-01-2019,08:00,47.61534,R,ugm-3,47.77790,R,ugm-3,120.78707,R,ugm-3,15.000,R,ugm-3 (BAM)
07-01-2019,09:00,61.25871,R,ugm-3,58.77699,R,ugm-3,152.70569,R,ugm-3,14.000,R,ugm-3 (BAM)
07-01-2019,10:00,46.48976,R,ugm-3,43.64430,R,ugm-3,114.92761,R,ugm-3,9.000,R,ugm-3 (BAM)
07-01-2019,11:00,26.19526,R,ugm-3,35.54486,R,ugm-3,75.71036,R,ugm-3,8.000,R,ugm-3 (BAM)
07-01-2019,12:00,24.45573,R,ugm-3,27.52116,R,ugm-3,65.01942,R,ugm-3,6.000,R,ugm-3 (BAM)
07-01-2019,13:00,26.33169,R,ugm-3,27.42026,R,ugm-3,67.79495,R,ugm-3,10.000,R,ugm-3 (BAM)
07-01-2019,14:00,29.53788,R,ugm-3,34.01749,R,ugm-3,79.30828,R,ugm-3,10.000,R,ugm-3 (BAM)
07-01-2019,15:00,28.41231,R,ugm-3,47.97625,R,ugm-3,91.54118,R,ugm-3,16.000,R,ugm-3 (BAM)
07-01-2019,16:00,23.94410,R,ugm-3,29.84760,R,ugm-3,66.56138,R,ugm-3,17.000,R,ugm-3 (BAM)
07-01-2019,17:00,23.29604,R,ugm-3,33.46262,R,ugm-3,69.18272,R,ugm-3,7.000,R,ugm-3 (BAM)
07-01-2019,18:00,19.40769,R,ugm-3,22.20610,R,ugm-3,51.96414,R,ugm-3,10.000,R,ugm-3 (BAM)
07-01-2019,19:00,21.21543,R,ugm-3,26.32170,R,ugm-3,58.85157,R,ugm-3,11.000,R,ugm-3 (BAM)
07-01-2019,20:00,12.44957,R,ugm-3,19.81978,R,ugm-3,38.90885,R,ugm-3,9.000,R,ugm-3 (BAM)
07-01-2019,21:00,15.41700,R,ugm-3,19.79287,R,ugm-3,43.43195,R,ugm-3,9.000,R,ugm-3 (BAM)
07-01-2019,22:00,9.65268,R,ugm-3,16.65547,R,ugm-3,31.45604,R,ugm-3,7.000,R,ugm-3 (BAM)
07-01-2019,23:00,7.16277,R,ugm-3,8.65157,R,ugm-3,19.63432,R,ugm-3,7.000,R,ugm-3 (BAM)
07-01-2019,24:00,4.87750,R,ugm-3,5.26816,R,ugm-3,12.74689,R,ugm-3,6.000,R,ugm-3 (BAM)
08-01-2019,01:00,2.62931,R,ugm-3,5.32101,R,ugm-3,9.35255,R,ugm-3,9.000,R,ugm-3 (BAM)
08-01-2019,02:00,0.86132,R,ugm-3,1.95613,R,ugm-3,3.27681,R,ugm-3,7.000,R,ugm-3 (BAM)
08-01-2019,03:00,1.01999,R,ugm-3,1.04725,R,ugm-3,2.61121,R,ugm-3,7.000,R,ugm-3 (BAM)
08-01-2019,04:00,0.84999,R,ugm-3,0.94950,R,ugm-3,2.25281,R,ugm-3,6.000,R,ugm-3 (BAM)
08-01-2019,05:00,1.39399,R,ugm-3,1.90739,R,ugm-3,4.04481,R,ugm-3,8.000,R,ugm-3 (BAM)
08-01-2019,06:00,4.55595,R,ugm-3,2.94713,R,ugm-3,9.93282,R,ugm-3,10.000,R,ugm-3 (BAM)
08-01-2019,07:00,9.14590,R,ugm-3,14.95574,R,ugm-3,28.97925,R,ugm-3,9.000,R,ugm-3 (BAM)
08-01-2019,08:00,23.49374,R,ugm-3,24.54648,R,ugm-3,60.56972,R,ugm-3,10.000,R,ugm-3 (BAM)
08-01-2019,09:00,39.57556,R,ugm-3,39.56811,R,ugm-3,100.24979,R,ugm-3,15.000,R,ugm-3 (BAM)
08-01-2019,10:00,30.53166,R,ugm-3,33.36479,R,ugm-3,80.17935,R,ugm-3,14.000,R,ugm-3 (BAM)
08-01-2019,11:00,30.15767,R,ugm-3,32.29984,R,ugm-3,78.54095,R,ugm-3,10.000,R,ugm-3 (BAM)
08-01-2019,12:00,21.31777,R,ugm-3,20.51012,R,ugm-3,53.19690,R,ugm-3,10.000,R,ugm-3 (BAM)
08-01-2019,13:00,30.36167,R,ugm-3,30.80944,R,ugm-3,77.36335,R,ugm-3,10.000,R,ugm-3 (BAM)
08-01-2019,14:00,25.22772,R,ugm-3,28.49256,R,ugm-3,67.17453,R,ugm-3,8.000,R,ugm-3 (BAM)
08-01-2019,15:00,25.12572,R,ugm-3,29.21216,R,ugm-3,67.73773,R,ugm-3,11.000,R,ugm-3 (BAM)
08-01-2019,16:00,35.90360,R,ugm-3,41.30716,R,ugm-3,96.35858,R,ugm-3,17.000,R,ugm-3 (BAM)
08-01-2019,17:00,41.85354,R,ugm-3,59.78090,R,ugm-3,123.95543,R,ugm-3,12.000,R,ugm-3 (BAM)
08-01-2019,18:00,58.64935,R,ugm-3,60.65173,R,ugm-3,150.57948,R,ugm-3,17.000,R,ugm-3 (BAM)
08-01-2019,19:00,55.75939,R,ugm-3,58.47814,R,ugm-3,143.97467,R,ugm-3,20.000,R,ugm-3 (BAM)
08-01-2019,20:00,55.62339,R,ugm-3,58.12347,R,ugm-3,143.41147,R,ugm-3,13.000,R,ugm-3 (BAM)
08-01-2019,21:00,43.75752,R,ugm-3,42.47428,R,ugm-3,109.56821,R,ugm-3,13.000,R,ugm-3 (BAM)
08-01-2019,22:00,15.40183,R,ugm-3,24.71708,R,ugm-3,48.33289,R,ugm-3,12.000,R,ugm-3 (BAM)
08-01-2019,23:00,11.52587,R,ugm-3,18.57691,R,ugm-3,36.24967,R,ugm-3,7.000,R,ugm-3 (BAM)
08-01-2019,24:00,10.87988,R,ugm-3,15.98341,R,ugm-3,32.66566,R,ugm-3,7.000,R,ugm-3 (BAM)
09-01-2019,01:00,10.70951,R,ugm-3,17.03593,R,ugm-3,33.45695,R,ugm-3,8.000,R,ugm-3 (BAM)
09-01-2019,02:00,3.11796,R,ugm-3,8.75158,R,ugm-3,13.53238,R,ugm-3,8.000,R,ugm-3 (BAM)
09-01-2019,03:00,2.13512,R,ugm-3,6.00845,R,ugm-3,9.28226,R,ugm-3,9.000,R,ugm-3 (BAM)
09-01-2019,04:00,3.01628,R,ugm-3,8.83948,R,ugm-3,13.46438,R,ugm-3,8.000,R,ugm-3 (BAM)
09-01-2019,05:00,3.69410,R,ugm-3,7.64717,R,ugm-3,13.31138,R,ugm-3,6.000,R,ugm-3 (BAM)
09-01-2019,06:00,16.74208,R,ugm-3,25.22861,R,ugm-3,50.89944,R,ugm-3,4.000,R,ugm-3 (BAM)
09-01-2019,07:00,27.31602,R,ugm-3,32.83314,R,ugm-3,74.71711,R,ugm-3,8.000,R,ugm-3 (BAM)
09-01-2019,08:00,50.12455,R,ugm-3,56.35919,R,ugm-3,133.21576,R,ugm-3,13.000,R,ugm-3 (BAM)
09-01-2019,09:00,61.71522,R,ugm-3,79.08223,R,ugm-3,173.71091,R,ugm-3,9.000,R,ugm-3 (BAM)
09-01-2019,10:00,40.73679,R,ugm-3,53.92308,R,ugm-3,116.38529,R,ugm-3,9.000,R,ugm-3 (BAM)
09-01-2019,11:00,41.55017,R,ugm-3,49.51383,R,ugm-3,113.22320,R,ugm-3,8.000,R,ugm-3 (BAM)
09-01-2019,12:00,35.14480,R,ugm-3,47.91093,R,ugm-3,101.79888,R,ugm-3,10.000,R,ugm-3 (BAM)
09-01-2019,13:00,37.21214,R,ugm-3,36.37682,R,ugm-3,93.43464,R,ugm-3,8.000,R,ugm-3 (BAM)
09-01-2019,14:00,39.75396,R,ugm-3,40.18064,R,ugm-3,101.13586,R,ugm-3,10.000,R,ugm-3 (BAM)
09-01-2019,15:00,46.46434,R,ugm-3,62.94046,R,ugm-3,134.18479,R,ugm-3,10.000,R,ugm-3 (BAM)
09-01-2019,16:00,58.15668,R,ugm-3,62.40395,R,ugm-3,151.57628,R,ugm-3,23.000,R,ugm-3 (BAM)
09-01-2019,17:00,57.17385,R,ugm-3,63.60493,R,ugm-3,151.27027,R,ugm-3,25.000,R,ugm-3 (BAM)
09-01-2019,18:00,69.54400,R,ugm-3,85.03076,R,ugm-3,191.66342,R,ugm-3,27.000,R,ugm-3 (BAM)
09-01-2019,19:00,82.52420,R,ugm-3,72.01328,R,ugm-3,198.54861,R,ugm-3,30.000,R,ugm-3 (BAM)
09-01-2019,20:00,51.88688,R,ugm-3,63.85729,R,ugm-3,143.41605,R,ugm-3,29.000,R,ugm-3 (BAM)
09-01-2019,21:00,49.71786,R,ugm-3,56.06475,R,ugm-3,132.29774,R,ugm-3,18.000,R,ugm-3 (BAM)
09-01-2019,22:00,40.94013,R,ugm-3,46.72610,R,ugm-3,109.50009,R,ugm-3,15.000,R,ugm-3 (BAM)
09-01-2019,23:00,24.26584,R,ugm-3,33.88890,R,ugm-3,71.09601,R,ugm-3,16.000,R,ugm-3 (BAM)
09-01-2019,24:00,22.13072,R,ugm-3,35.58167,R,ugm-3,69.51497,R,ugm-3,9.000,R,ugm-3 (BAM)
10-01-2019,01:00,19.18821,R,ugm-3,33.16753,R,ugm-3,62.58903,R,ugm-3,9.000,R,ugm-3 (BAM)
10-01-2019,02:00,15.35957,R,ugm-3,17.42990,R,ugm-3,40.98091,R,ugm-3,9.000,R,ugm-3 (BAM)
10-01-2019,03:00,11.62103,R,ugm-3,20.08022,R,ugm-3,37.89888,R,ugm-3,7.000,R,ugm-3 (BAM)
10-01-2019,04:00,6.31724,R,ugm-3,17.34078,R,ugm-3,27.02708,R,ugm-3,3.000,R,ugm-3 (BAM)
10-01-2019,05:00,4.66192,R,ugm-3,23.28269,R,ugm-3,30.43087,R,ugm-3,3.000,R,ugm-3 (BAM)
10-01-2019,06:00,48.81507,R,ugm-3,55.76523,R,ugm-3,130.61396,R,ugm-3,8.000,R,ugm-3 (BAM)
10-01-2019,07:00,130.53386,R,ugm-3,82.16195,R,ugm-3,282.31108,R,ugm-3,15.000,R,ugm-3 (BAM)
10-01-2019,08:00,129.08123,R,ugm-3,87.79307,R,ugm-3,285.71487,R,ugm-3,,,
10-01-2019,09:00,89.89405,R,ugm-3,81.78483,R,ugm-3,219.62044,R,ugm-3,12.000,R,ugm-3 (BAM)
10-01-2019,10:00,110.19706,R,ugm-3,76.86821,R,ugm-3,245.83468,R,ugm-3,16.000,R,ugm-3 (BAM)
10-01-2019,11:00,67.46276,R,ugm-3,65.83342,R,ugm-3,169.27488,R,ugm-3,14.000,R,ugm-3 (BAM)
10-01-2019,12:00,53.61212,R,ugm-3,47.08898,R,ugm-3,129.29309,R,ugm-3,9.000,R,ugm-3 (BAM)
10-01-2019,13:00,53.54456,R,ugm-3,45.51609,R,ugm-3,127.61660,R,ugm-3,10.000,R,ugm-3 (BAM)
10-01-2019,14:00,74.25296,R,ugm-3,55.62515,R,ugm-3,169.47809,R,ugm-3,7.000,R,ugm-3 (BAM)
10-01-2019,15:00,53.51078,R,ugm-3,60.65632,R,ugm-3,142.70502,R,ugm-3,9.000,R,ugm-3 (BAM)
10-01-2019,16:00,43.61263,R,ugm-3,60.69402,R,ugm-3,127.56579,R,ugm-3,15.000,R,ugm-3 (BAM)
10-01-2019,17:00,47.66648,R,ugm-3,53.91938,R,ugm-3,127.00696,R,ugm-3,16.000,R,ugm-3 (BAM)
10-01-2019,18:00,40.13308,R,ugm-3,53.63338,R,ugm-3,115.16991,R,ugm-3,25.000,R,ugm-3 (BAM)
10-01-2019,19:00,71.55039,R,ugm-3,76.12752,R,ugm-3,185.83659,R,ugm-3,21.000,R,ugm-3 (BAM)
10-01-2019,20:00,49.49071,R,ugm-3,59.55553,R,ugm-3,135.44023,R,ugm-3,15.000,R,ugm-3 (BAM)
10-01-2019,21:00,37.12648,R,ugm-3,56.26213,R,ugm-3,113.18861,R,ugm-3,17.000,R,ugm-3 (BAM)
10-01-2019,22:00,21.55295,R,ugm-3,39.24497,R,ugm-3,72.29236,R,ugm-3,15.000,R,ugm-3 (BAM)
10-01-2019,23:00,19.05308,R,ugm-3,33.12070,R,ugm-3,62.33502,R,ugm-3,15.000,R,ugm-3 (BAM)
10-01-2019,24:00,9.22250,R,ugm-3,23.19908,R,ugm-3,37.34005,R,ugm-3,10.000,R,ugm-3 (BAM)
11-01-2019,01:00,3.41223,R,ugm-3,15.61690,R,ugm-3,20.84890,R,ugm-3,10.000,R,ugm-3 (BAM)
11-01-2019,02:00,,,,,,,,,,11.000,R,ugm-3 (BAM)
11-01-2019,03:00,3.33365,R,ugm-3,12.44810,R,ugm-3,17.55963,R,ugm-3,7.000,R,ugm-3 (BAM)
11-01-2019,04:00,4.98365,R,ugm-3,15.33279,R,ugm-3,22.97428,R,ugm-3,5.000,R,ugm-3 (BAM)
11-01-2019,05:00,5.08466,R,ugm-3,16.13938,R,ugm-3,23.93575,R,ugm-3,9.000,R,ugm-3 (BAM)
11-01-2019,06:00,15.45603,R,ugm-3,21.69299,R,ugm-3,45.39190,R,ugm-3,11.000,R,ugm-3 (BAM)
11-01-2019,07:00,39.86915,R,ugm-3,42.75843,R,ugm-3,103.89028,R,ugm-3,11.000,R,ugm-3 (BAM)
11-01-2019,08:00,41.31710,R,ugm-3,48.23010,R,ugm-3,111.58211,R,ugm-3,11.000,R,ugm-3 (BAM)
11-01-2019,09:00,41.18241,R,ugm-3,50.35959,R,ugm-3,113.50506,R,ugm-3,9.000,R,ugm-3 (BAM)
11-01-2019,10:00,82.49951,R,ugm-3,65.24156,R,ugm-3,191.73905,R,ugm-3,14.000,R,ugm-3 (BAM)
11-01-2019,11:00,81.52299,R,ugm-3,58.43980,R,ugm-3,183.43997,R,ugm-3,10.000,R,ugm-3 (BAM)
11-01-2019,12:00,36.36713,R,ugm-3,39.67723,R,ugm-3,95.43939,R,ugm-3,6.000,R,ugm-3 (BAM)
11-01-2019,13:00,39.22936,R,ugm-3,39.28627,R,ugm-3,99.43712,R,ugm-3,7.000,R,ugm-3 (BAM)
11-01-2019,14:00,52.56397,R,ugm-3,45.81215,R,ugm-3,126.40912,R,ugm-3,,,
11-01-2019,15:00,47.84972,R,ugm-3,54.30568,R,ugm-3,127.67422,R,ugm-3,,,
11-01-2019,16:00,53.70887,R,ugm-3,62.02114,R,ugm-3,144.37358,R,ugm-3,,,
11-01-2019,17:00,92.33211,R,ugm-3,83.86748,R,ugm-3,225.44140,R,ugm-3,,,
11-01-2019,18:00,85.96786,R,ugm-3,79.20368,R,ugm-3,211.01922,R,ugm-3,,,
11-01-2019,19:00,106.37386,R,ugm-3,90.92842,R,ugm-3,254.03273,R,ugm-3,,,
11-01-2019,20:00,82.36482,R,ugm-3,86.90424,R,ugm-3,213.19520,R,ugm-3,18.000,R,ugm-3 (BAM)
11-01-2019,21:00,71.05060,R,ugm-3,70.90435,R,ugm-3,179.84708,R,ugm-3,19.000,R,ugm-3 (BAM)
11-01-2019,22:00,23.30190,R,ugm-3,36.73603,R,ugm-3,72.46512,R,ugm-3,10.000,R,ugm-3 (BAM)
11-01-2019,23:00,14.04175,R,ugm-3,20.52164,R,ugm-3,42.05203,R,ugm-3,6.000,R,ugm-3 (BAM)
11-01-2019,24:00,10.57341,R,ugm-3,19.15996,R,ugm-3,35.37229,R,ugm-3,7.000,R,ugm-3 (BAM)
12-01-2019,01:00,5.95210,R,ugm-3,10.29648,R,ugm-3,19.42291,R,ugm-3,5.000,R,ugm-3 (BAM)
12-01-2019,02:00,6.04161,R,ugm-3,10.62969,R,ugm-3,19.89336,R,ugm-3,5.000,R,ugm-3 (BAM)
12-01-2019,03:00,4.90042,R,ugm-3,9.42238,R,ugm-3,16.93624,R,ugm-3,5.000,R,ugm-3 (BAM)
12-01-2019,04:00,3.35645,R,ugm-3,10.22719,R,ugm-3,15.37367,R,ugm-3,3.000,R,ugm-3 (BAM)
12-01-2019,05:00,3.08793,R,ugm-3,7.61458,R,ugm-3,12.34934,R,ugm-3,1.000,R,ugm-3 (BAM)